Weather History for Frederick, OK

Change the Weather History Date:

Monday, January 27, 2014

  Actual Average (KLTS) Record (KLTS)
Temperature  
Mean Temperature 29 °F -  
Max Temperature 39 °F 50 °F 76 °F (2013)
Min Temperature 17 °F 27 °F 15 °F (2004)
Degree Days  
Heating Degree Days 36    
Moisture  
Dew Point -7 °F    
Average Humidity 25    
Maximum Humidity 49    
Minimum Humidity 15    
Precipitation  
Precipitation 0.00 in - - ()
Sea Level Pressure  
Sea Level Pressure 30.30 in    
Wind  
Wind Speed 25 mph (NNE)    
Max Wind Speed 37 mph    
Max Gust Speed 48 mph    
Visibility 10 miles    
Events      
Averages and records for this station are not official NWS values.
T = Trace of Precipitation, MM = Missing Value Source: NWS Daily Summary

Daily Weather History Graph

Daily Weather History Graph

Search for Another Location

Airport:

Trip Planner

Search our weather history database for the weather conditions in past years. The results will help you decide how hot, cold, wet, or windy it might be!

Date:

Astronomy

Jan. 27, 2014 Rise Set
Actual Time 7:36 AM CST 6:00 PM CST
Civil Twilight 7:10 AM CST 6:27 PM CST
Nautical Twilight 6:39 AM CST 6:57 PM CST
Astronomical Twilight 6:10 AM CST 7:27 PM CST
Moon 4:17 AM CST 2:50 PM CST
Length of Visible Light 11h 17m
Length of Day
10h 24m
Waning Crescent, 14% of the Moon is Illuminated
Jan 27
Waning Crescent
Jan 30
New
Feb 6
First Quarter
Feb 14
Full
Feb 22
Last Quarter

Hourly Weather History & Observations

Time (CST) Temp. Windchill Dew Point Humidity Pressure Visibility Wind Dir Wind Speed Gust Speed Precip Events Conditions
12:53 AM 39.9 °F 27.3 °F 21.9 °F 49% 29.95 in 9.0 mi NNE 36.8 mph 48.3 mph N/A   Clear
1:53 AM 37.0 °F 24.3 °F 14.0 °F 39% 30.01 in 10.0 mi NNE 31.1 mph 41.4 mph N/A   Clear
2:53 AM 34.0 °F 21.0 °F 7.0 °F 32% 30.08 in 10.0 mi NNE 26.5 mph 36.8 mph N/A   Clear
3:53 AM 30.9 °F 16.7 °F 5.0 °F 33% 30.14 in 10.0 mi NNE 27.6 mph 36.8 mph N/A   Clear
4:53 AM 28.0 °F 13.3 °F -0.9 °F 29% 30.19 in 10.0 mi NNE 25.3 mph 34.5 mph N/A   Clear
5:53 AM 26.1 °F 11.3 °F -2.9 °F 28% 30.24 in 10.0 mi North 23.0 mph 32.2 mph N/A   Clear
6:53 AM 25.0 °F 10.9 °F -4.0 °F 28% 30.29 in 10.0 mi NNE 19.6 mph - N/A   Clear
7:53 AM 23.0 °F 9.2 °F -2.9 °F 32% 30.34 in 10.0 mi North 17.3 mph - N/A   Clear
8:53 AM 24.1 °F 9.0 °F -5.1 °F 28% 30.36 in 10.0 mi North 21.9 mph - N/A   Clear
9:53 AM 27.0 °F 13.2 °F -5.1 °F 25% 30.38 in 10.0 mi NNE 20.7 mph 27.6 mph N/A   Clear
10:53 AM 28.0 °F 13.3 °F -11.9 °F 17% 30.41 in 10.0 mi NE 25.3 mph 31.1 mph N/A   Clear
11:53 AM 28.0 °F 15.3 °F -13.0 °F 16% 30.41 in 10.0 mi NNE 18.4 mph - N/A   Clear
12:53 PM 27.0 °F 13.2 °F -13.0 °F 17% 30.39 in 10.0 mi North 20.7 mph - N/A   Clear
1:53 PM 27.0 °F 13.9 °F -15.0 °F 15% 30.36 in 10.0 mi NNE 18.4 mph 25.3 mph N/A   Clear
2:53 PM 28.9 °F 16.1 °F -14.1 °F 15% 30.34 in 10.0 mi NNE 19.6 mph 26.5 mph N/A   Clear
3:53 PM 28.9 °F 16.5 °F -13.0 °F 16% 30.33 in 10.0 mi NNE 18.4 mph 24.2 mph N/A   Clear
4:53 PM 27.0 °F 13.2 °F -14.1 °F 16% 30.33 in 10.0 mi NNE 20.7 mph 28.8 mph N/A   Clear
5:53 PM 24.1 °F 10.1 °F -15.0 °F 17% 30.35 in 10.0 mi NNE 18.4 mph - N/A   Clear
6:53 PM 23.0 °F 8.7 °F -15.0 °F 18% 30.36 in 10.0 mi NNE 18.4 mph - N/A   Clear
7:53 PM 21.9 °F 8.7 °F -13.0 °F 21% 30.38 in 10.0 mi NNE 15.0 mph - N/A   Clear
8:53 PM 21.0 °F 7.1 °F -13.0 °F 22% 30.39 in 10.0 mi NNE 16.1 mph - N/A   Clear
9:53 PM 19.9 °F 6.7 °F -11.9 °F 24% 30.40 in 10.0 mi NNE 13.8 mph - N/A   Clear
10:53 PM 19.0 °F 6.1 °F -11.9 °F 25% 30.42 in 10.0 mi NNE 12.7 mph - N/A   Clear
11:53 PM 17.1 °F 5.0 °F -9.9 °F 30% 30.43 in 10.0 mi North 10.4 mph - N/A   Scattered Clouds